CZ-6A DEB, 54625

Orbit data source: Space-Track

CZ-6A DEB, 54625 is space debris in SSO originally from a launch on Fri, 11 Nov 2022 UTC launched from the Taiyaun Space Center, China (TSC). Debris objects in space refer to the collection of defunct objects orbiting the Earth. Examples of debris include non-operational satellites, rocket bodies, and fragments generated from explosions, collisions, or faulty payload assembly.

Loading next visibility...
Identifier
54625, 2022-151PB
Orbit
SSO
Country
Flag of CNCN / PRC
Related business
Manufacturer
SAST
Mission
Spacecraft
Bus & Motor
Unknown
Mass
Unknown
Launch date (UTC)
2022-11-11 (3 years ago)
Launch vehicle
Unknown
Launch site
Taiyaun Space Center, China (TSC)
Object type
Payload
Rocket body
Debris
Shape & HBR
Unknown shape, 0.1 m
Radar Cross Section
Small (<0.1 m²)

Expand to show TLE details & history
Last TLE update: 1 day ago

TLE from 1 day ago
0 CZ-6A DEB
1 54625U 22151PB  25354.81721207  .00000147  00000-0  13879-3 0  9993
2 54625  98.9214 324.5921 0132684 224.3751 134.6715 13.91800800156505
Epoch: 2025-12-20T19:36Z
TLE epoch observation values (Epoch: 2025-12-20T19:36:47.122Z)
Latitude
-0.0001°
Longitude
-59.2428°
Altitude
993.95 km
Speed
7.32 km/s
True Right ascension
21h 38m 22s
True Declination
0° 00' 00"
Sunlit
Object was in daylight at epoch
Visualization orbit readout
Latitude
Unknown
Longitude
Unknown
Altitude
Unknown
Speed
Unknown
Apparent Right ascension
Unknown
Apparent Declination
Unknown
Sunlit
N/A
Visualization observer readout
Local Sidereal Time
21:34:20
Azimuth
Unknown
Elevation
Unknown
Doppler factor
Unknown
Orbital elements
Apogee altitude
1,016.361 km
Perigee altitude
822.704 km
Semi-major axis
7,297.67 km
Eccentricity
0.01327
Inclination
98.9214°
RAAN
324.5921°
Arg. of periapsis
224.3751°
True anomaly
135.74023°
Mean anomaly
134.6715°
Eccentric anomaly
135.20711°
Mean motion
3.4815 °/min
Orbital period
103.4 mins
BSTAR
0.00013879
Loading maneuver chart data...
Computing Atmospheric mass density...
Loading historical data...
Loading historical data...
Loading historical data...
Loading historical data...
Loading historical data...
Loading historical data...
Loading historical data...

Documentation

Showing up to 5 results
|